Vertical_Velocity
2 5 5 -0 2 2 -0 1 -0 1 2 -2 -3 -1 -2 -0 0 -2 -1 1 -2 3 -2 -1 -1 -2 -3
5 1 3 1 -1 5 3 -1 -1 2 -4 -5 4 2 -3 2 -3 -3 -1 -0 -1 -1 -1 -6 -0 -1 -3
3 -2 4 -5 2 0 7 -3 -2 2 1 5 -2 -3 1 -3 -2 -2 2 -4 1 0 2 -3 -3 -4 -1
-6 3 -1 -1 3 7 5 -13 -0 8 -4 -3 -2 -2 -3 -3 -3 -0 -3 -1 -3 -0 -0 -2 -4 -3 0
-2 1 -2 4 -9 12 -7 -4 -1 0 4 -3 1 -5 -5 0 1 2 -5 2 -4 -3 -3 -6 -3 -2 -1
4 -2 -3 4 -4 -3 -0 -9 8 6 -1 1 -2 2 -9 7 -1 -3 -3 -2 -2 -2 -3 -2 -0 -3 -3
-1 2 -3 -8 -4 -5 -5 -2 -6 7 4 -3 -3 -1 3 -4 4 -1 -3 -3 -2 -6 -6 -3 -2 -1 1
5 -1 -1 0 -3 -8 2 2 -8 -6 3 1 -3 3 3 1 0 -5 -3 -6 -3 -4 -2 -5 -4 -3 -2
1 -6 -3 -2 -1 3 5 -12 -7 2 -0 -5 -6 5 6 3 -4 -4 -1 -4 -4 -2 -3 -2 -4 -3 -3
2 -0 -1 -1 1 1 -3 -5 -4 6 1 -1 -4 -5 6 4 0 -4 -4 -5 -4 -3 -5 -6 -4 -5 -3
-0 0 1 2 -0 -1 -3 -4 -1 -0 -6 -7 4 -2 -6 -12 2 -5 -5 -5 -7 -6 3 1 2 -5 -5
-2 -2 -2 -3 -2 -1 -3 -1 -5 -4 -3 -2 -1 -5 -2 -6 -10 5 -1 -1 -2 -1 -2 1 1 -2 -1
-3 -1 -1 -1 1 -2 -1 -3 -4 -3 -1 -3 -4 -5 -5 1 -3 -3 -14 5 -5 0 -3 -1 -2 0 0
-0 1 -0 -1 -2 -2 -4 -4 0 1 -5 -6 2 2 -1 1 -5 -2 0 -17 -3 -1 -4 2 -0 -2 -2
1 -0 -2 -4 -5 -6 -5 -3 -0 1 5 1 -4 -5 -3 -3 0 -3 1 -1 -2 -3 -4 -3 9 -4 -0
-3 -4 -3 -4 -4 0 -0 -2 -3 -1 -2 -2 -2 1 2 9 -1 3 0 -7 -5 0 2 -15 -1 8 -2
-3 -3 -2 -1 -3 -3 -2 -1 1 0 2 -0 -1 -5 -4 2 4 10 -7 3 -7 -3 -1 -1 -10 2 -4
Height
3067 3068 3070 3072 3073 3074 3073 3073 3073 3072 3072 3071 3068 3066 3064 3060 3057 3053 3049 3046 3041 3037 3033 3029 3025 3021 3017
3064 3064 3065 3066 3068 3067 3067 3067 3067 3067 3065 3062 3059 3058 3055 3052 3047 3045 3040 3035 3030 3027 3023 3020 3015 3011 3007
3060 3060 3061 3061 3062 3062 3062 3062 3062 3059 3056 3054 3052 3050 3047 3042 3038 3034 3029 3024 3020 3017 3013 3008 3004 3000 2996
3055 3056 3057 3057 3057 3058 3056 3056 3055 3052 3048 3046 3045 3041 3036 3032 3027 3022 3019 3015 3011 3007 3001 2996 2992 2988 2984
3052 3053 3053 3054 3054 3052 3050 3050 3049 3045 3043 3038 3036 3031 3027 3022 3018 3014 3010 3006 3001 2995 2989 2985 2981 2977 2971
3050 3050 3051 3050 3050 3048 3046 3044 3043 3040 3035 3032 3028 3023 3019 3014 3009 3005 3000 2995 2989 2984 2979 2974 2969 2962 2957
3046 3046 3046 3046 3046 3045 3042 3039 3034 3032 3029 3024 3019 3016 3012 3006 3000 2995 2989 2984 2978 2972 2965 2960 2955 2950 2944
3041 3042 3042 3042 3041 3039 3036 3030 3028 3024 3020 3016 3012 3008 3004 2997 2991 2985 2979 2973 2967 2960 2954 2948 2943 2937 2930
3038 3037 3037 3036 3034 3032 3028 3025 3021 3014 3009 3006 3004 2999 2996 2990 2983 2977 2970 2963 2958 2951 2945 2939 2932 2924 2918
3034 3033 3032 3030 3028 3024 3020 3015 3011 3007 3000 2998 2993 2986 2985 2983 2977 2971 2965 2958 2951 2944 2937 2928 2920 2913 2907
3029 3028 3025 3023 3019 3016 3012 3008 3003 2998 2991 2985 2985 2978 2972 2966 2968 2960 2952 2946 2938 2931 2925 2919 2912 2906 2900
3023 3020 3017 3015 3012 3009 3004 2999 2994 2989 2984 2978 2974 2969 2964 2960 2953 2950 2940 2933 2926 2922 2917 2912 2907 2901 2896
3017 3014 3012 3008 3004 3001 2996 2992 2986 2981 2977 2970 2964 2960 2955 2948 2939 2935 2929 2928 2921 2914 2909 2906 2900 2895 2890
3011 3008 3005 3001 2997 2992 2987 2983 2979 2974 2967 2962 2956 2949 2943 2939 2933 2928 2921 2915 2913 2907 2901 2898 2894 2889 2883
3005 3002 2997 2992 2988 2984 2980 2975 2970 2966 2961 2952 2945 2941 2937 2931 2926 2918 2914 2910 2905 2900 2895 2889 2887 2882 2876
2997 2993 2989 2985 2981 2976 2971 2965 2959 2954 2950 2945 2940 2933 2928 2924 2918 2913 2907 2902 2898 2892 2887 2881 2876 2875 2869
2990 2985 2981 2977 2972 2966 2961 2956 2951 2945 2940 2934 2929 2923 2918 2916 2914 2908 2900 2894 2890 2885 2878 2873 2868 2864 2859